Weather Roundup
Issued by NWS Springfield, MO

Home | Current Version | Previous Version | Text Only | Print | Product List | Glossary On
Versions: 1 2 3 4 5 6 7 8 9 10 11 12 13 14 15 16 17 18 19 20 21 22 23 24 25 26 27 28 29 30 31 32 33 34 35 36 37 38 39 40 41 42 43 44 45 46 47 48 49 50
000
NZUS99 KSGF 020910
HRRSGF

HOURLY WEATHER
NATIONAL WEATHER SERVICE SPRINGFIELD MO
400 AM CDT WED SEP 02 2015

......SGF CWA......

CITY           SKY/WX    TMP DP  RH WIND       PRES   REMARKS
SPRINGFIELD    CLEAR     71  65  81 S10       30.07S
JOPLIN         CLEAR     72  66  81 S10       30.04S
WEST PLAINS    CLEAR     70  66  87 CALM      30.11S
ROLLA          CLEAR     72  68  87 S8        30.07S
OSAGE BEACH    CLEAR     72  66  83 S5        30.06S
BRANSON        PTCLDY    70  64  83 CALM      30.10S

......SURROUNDING SGF CWA......

CITY           SKY/WX    TMP DP  RH WIND       PRES   REMARKS
CHANUTE        CLEAR     70  67  90 S7        30.01S
PARSONS        CLEAR     71  68  90 S3        30.02S
COFFEYVILLE    CLEAR     70  67  90 S8        30.00F
EMPORIA        CLEAR     72  67  84 S15       29.97S
GROVE OK       CLEAR     73  68  83 S6        30.05S
ROGERS AR      CLEAR     70  66  87 S7        30.10R
SILOAM SPRINGS CLEAR     68  61  77 SE7       30.07S
HARRISON AR    CLEAR     66  64  93 CALM      30.11R
NEAR YELLVILLE CLEAR     66  63  88 CALM      30.06F

......KANSAS AND MISSOURI......

CITY           SKY/WX    TMP DP  RH WIND       PRES   REMARKS
KANSAS CTY INT PTCLDY    72  65  78 S8        29.99R
DOWNTOWN KC    CLEAR     76  65  68 SW8       29.98R
COLUMBIA       CLEAR     71  69  93 S7        30.05R
SEDALIA        CLEAR     71  67  87 S8        30.04R
ST JOSEPH      LGT RAIN  72  69  90 N6        29.98R
ST LOUIS       CLEAR     76  68  76 S3        30.07R
SPIRIT OF STL  CLEAR     73  70  90 CALM      30.05S
KIRKSVILLE     PTCLDY    71  67  87 S6        30.03R
WICHITA        MOCLDY    75  63  66 S12       29.98S
TOPEKA         PTCLDY    75  67  76 S5        29.95F
OLATHE         CLEAR     70  65  84 S6        29.99S

......TENNESSEE......

CITY           SKY/WX    TMP DP  RH WIND       PRES   REMARKS
MEMPHIS        CLOUDY    80  70  71 CALM      30.07S
NASHVILLE      MOCLDY    71  67  87 CALM      30.10S

......ARKANSAS.......

CITY           SKY/WX    TMP DP  RH WIND       PRES   REMARKS
FAYETTEVILLE   CLEAR     67  66  97 S3        30.10R
FT SMITH       CLEAR     72  66  81 NE6       30.06R
LITTLE ROCK    PTCLDY    74  69  85 CALM      30.06S

......OKLAHOMA.......

CITY           SKY/WX    TMP DP  RH WIND       PRES   REMARKS
TULSA          PTCLDY    76  67  73 S12       30.01R
PONCA CITY     PTCLDY    76  64  66 S8        29.99S
MCALESTER      MOCLDY    74  67  78 S3        30.06R
OKLAHOMA CITY  PTCLDY    69  64  84 S7        30.03S

......IOWA............

CITY           SKY/WX    TMP DP  RH WIND       PRES   REMARKS
DES MOINES     TSTM      74  68  81 SW14      29.98R
QUAD CITIES    CLEAR     72  67  84 CALM      30.02R

......ILLINOIS........

CITY           SKY/WX    TMP DP  RH WIND       PRES   REMARKS
QUINCY         CLEAR     72  68  87 S6        30.04S
CHICAGO        PTCLDY    73  69  87 W3        30.02S




USA.gov is the U.S. government's official web portal to all federal, state and local government web resources and services.